contact:dominique.lefevre@mio.osupytheas.fr, maurice.libes@osupytheas.fr, didier.mallarino@osupytheas.fr
Project:EMSO http://www.emso-fr.org/EMSO-France
Depth: 2436.0 m
Title:EMSO Ligure Ouest : Data MII capteur AQUADOPP
Date,Latitude,Longitude,X_East,Y_North,Z_Up,Amplitude_X,Amplitude_Y,Amplitude_Z,Batterie,SoundSpeed,Heading,Pitch,Roll,Pressure,TIS,Speed,Direction
, degrees North, degrees East, m.s-1, m.s-1,m.s-1, 1, 1, 1, Volt, m.s-1, degree, degree, degree, dbar, degree_C, m.s-1, degree
2023-09-21T00:04:03,42.805,6.029,-0.012,0.023,0.0,101.0,101.0,101.0,13.4,1505.2,341.5,-0.7,1.8,2471.544,13.29,0.025,332.4
2023-09-21T00:07:03,42.805,6.029,-0.002,0.017,-0.014,101.0,101.0,101.0,13.3,1505.2,344.0,-0.7,1.8,2471.581,13.29,0.017,353.3
2023-09-21T00:10:03,42.805,6.029,-0.024,0.027,-0.013,101.0,102.0,101.0,13.3,1505.2,354.8,-0.8,1.8,2471.576,13.29,0.036,318.4
2023-09-21T00:13:03,42.805,6.029,0.004,0.014,0.004,102.0,102.0,101.0,13.4,1505.2,353.4,-0.7,1.8,2471.551,13.29,0.014,15.9
2023-09-21T00:16:03,42.805,6.029,-0.018,0.0,-0.039,102.0,102.0,100.0,13.4,1505.2,355.7,-0.8,1.8,2471.523,13.29,0.018,270.0
2023-09-21T00:19:03,42.805,6.029,-0.007,0.011,-0.015,101.0,102.0,101.0,13.3,1505.2,355.9,-0.7,1.8,2471.56,13.29,0.013,327.5
2023-09-21T00:22:03,42.805,6.029,-0.012,0.01,-0.006,100.0,102.0,100.0,13.4,1505.2,330.6,-0.7,1.8,2471.556,13.29,0.015,309.8
2023-09-21T00:25:03,42.805,6.029,-0.006,-0.001,-0.022,101.0,101.0,101.0,13.4,1505.2,348.4,-0.7,1.8,2471.549,13.29,0.006,260.5
2023-09-21T00:28:03,42.805,6.029,-0.009,0.007,-0.009,101.0,101.0,101.0,13.4,1505.2,348.4,-0.8,1.8,2471.527,13.29,0.011,307.9
2023-09-21T00:31:03,42.805,6.029,-0.006,0.027,0.0,102.0,102.0,102.0,13.4,1505.2,348.2,-0.8,1.8,2471.527,13.29,0.027,347.5
2023-09-21T00:34:03,42.805,6.029,-0.02,0.031,-0.004,101.0,102.0,101.0,13.4,1505.2,336.3,-0.8,1.8,2471.513,13.29,0.036,327.2
2023-09-21T00:37:03,42.805,6.029,-0.026,0.021,-0.067,101.0,102.0,101.0,13.4,1505.2,342.4,-0.8,1.8,2471.504,13.29,0.033,308.9
2023-09-21T00:40:03,42.805,6.029,-0.003,-0.002,-0.017,101.0,102.0,101.0,13.4,1505.2,337.0,-0.8,1.8,2471.514,13.29,0.003,236.3
2023-09-21T00:43:03,42.805,6.029,0.008,0.035,-0.005,102.0,101.0,101.0,13.4,1505.2,349.5,-0.7,1.8,2471.476,13.29,0.035,12.9
2023-09-21T00:46:03,42.805,6.029,0.024,0.024,0.002,102.0,101.0,101.0,13.4,1505.2,345.0,-0.8,1.8,2471.488,13.29,0.033,45.0
2023-09-21T00:49:03,42.805,6.029,-0.016,0.029,0.0,102.0,101.0,102.0,13.3,1505.2,336.5,-0.8,1.8,2471.505,13.29,0.033,331.1
2023-09-21T00:52:03,42.805,6.029,-0.009,0.021,-0.022,102.0,101.0,101.0,13.4,1505.2,337.1,-0.8,1.8,2471.492,13.29,0.022,336.8
2023-09-21T00:55:03,42.805,6.029,-0.011,0.015,-0.011,101.0,104.0,101.0,13.4,1505.2,327.0,-0.8,1.8,2471.494,13.29,0.018,323.7
2023-09-21T00:58:03,42.805,6.029,-0.021,0.021,-0.011,102.0,101.0,99.0,13.4,1505.2,326.5,-0.7,1.8,2471.494,13.29,0.029,315.0
2023-09-21T01:04:03,42.805,6.029,-0.024,0.023,-0.029,102.0,102.0,101.0,13.3,1505.2,340.4,-0.8,1.8,2471.552,13.29,0.033,313.8
2023-09-21T01:07:03,42.805,6.029,-0.026,0.008,-0.024,100.0,100.0,102.0,13.4,1505.2,346.7,-0.8,1.8,2471.524,13.29,0.027,287.1
2023-09-21T01:10:03,42.805,6.029,-0.012,0.02,-0.008,102.0,101.0,100.0,13.3,1505.2,345.7,-0.7,1.8,2471.518,13.29,0.023,329.0
2023-09-21T01:13:03,42.805,6.029,-0.012,0.02,-0.016,102.0,101.0,101.0,13.4,1505.2,335.8,-0.8,1.8,2471.52,13.29,0.023,329.0
2023-09-21T01:16:03,42.805,6.029,-0.011,0.021,-0.017,102.0,101.0,101.0,13.4,1505.2,334.3,-0.8,1.8,2471.506,13.29,0.023,332.4
2023-09-21T01:19:03,42.805,6.029,0.005,0.025,-0.015,101.0,102.0,101.0,13.3,1505.2,336.4,-0.7,1.8,2471.467,13.29,0.025,11.3
2023-09-21T01:22:03,42.805,6.029,-0.019,0.013,0.0,103.0,100.0,100.0,13.4,1505.2,333.4,-0.8,1.8,2471.477,13.29,0.023,304.4
2023-09-21T01:25:03,42.805,6.029,-0.025,0.023,-0.005,100.0,100.0,101.0,13.4,1505.2,345.5,-0.8,1.8,2471.498,13.29,0.033,312.6
2023-09-21T01:28:03,42.805,6.029,-0.009,0.029,-0.01,103.0,101.0,101.0,13.4,1505.2,353.8,-0.8,1.8,2471.499,13.29,0.03,342.8
2023-09-21T01:31:03,42.805,6.029,0.021,0.005,0.013,100.0,101.0,100.0,13.3,1505.2,343.0,-0.7,1.8,2471.494,13.29,0.021,76.6
2023-09-21T01:34:03,42.805,6.029,-0.022,0.002,-0.048,101.0,101.0,101.0,13.3,1505.2,343.3,-0.8,1.8,2471.486,13.29,0.022,275.2
2023-09-21T01:37:03,42.805,6.029,-0.008,0.025,0.004,102.0,101.0,100.0,13.4,1505.2,346.7,-0.8,1.8,2471.481,13.29,0.026,342.3
2023-09-21T01:40:03,42.805,6.029,-0.001,-0.009,-0.027,102.0,102.0,101.0,13.4,1505.2,336.4,-0.8,1.8,2471.43,13.29,0.009,186.3
2023-09-21T01:43:03,42.805,6.029,-0.001,0.016,0.027,100.0,101.0,101.0,13.3,1505.2,339.5,-0.8,1.8,2471.476,13.29,0.016,356.4
2023-09-21T01:46:03,42.805,6.029,-0.009,0.023,-0.023,101.0,101.0,101.0,13.4,1505.2,342.8,-0.8,1.8,2471.435,13.29,0.024,338.6
2023-09-21T01:49:03,42.805,6.029,-0.029,0.026,-0.025,102.0,101.0,100.0,13.4,1505.2,336.3,-0.7,1.8,2471.469,13.29,0.038,311.9
2023-09-21T01:52:03,42.805,6.029,-0.002,0.02,-0.01,101.0,102.0,100.0,13.4,1505.2,340.4,-0.8,1.8,2471.487,13.29,0.02,354.3
2023-09-21T01:55:03,42.805,6.029,0.001,0.008,-0.017,102.0,101.0,100.0,13.4,1505.2,348.6,-0.7,1.8,2471.479,13.29,0.008,7.1
2023-09-21T01:58:03,42.805,6.029,-0.022,0.028,-0.01,101.0,101.0,101.0,13.4,1505.2,347.9,-0.7,1.8,2471.495,13.29,0.035,321.8
2023-09-21T02:04:03,42.805,6.029,-0.009,0.031,0.002,101.0,101.0,101.0,13.3,1505.2,342.9,-0.8,1.8,2471.512,13.29,0.032,343.8
2023-09-21T02:07:03,42.805,6.029,-0.026,0.017,-0.01,100.0,102.0,102.0,13.4,1505.2,337.5,-0.8,1.8,2471.516,13.29,0.031,303.2
2023-09-21T02:10:03,42.805,6.029,-0.013,0.015,-0.061,102.0,101.0,101.0,13.4,1505.2,345.4,-0.7,1.8,2471.48,13.29,0.019,319.1
2023-09-21T02:13:03,42.805,6.029,-0.024,0.043,0.014,101.0,102.0,100.0,13.4,1505.2,336.3,-0.8,1.8,2471.5,13.29,0.049,330.8
2023-09-21T02:16:03,42.805,6.029,-0.018,0.014,-0.045,103.0,101.0,101.0,13.4,1505.2,343.3,-0.8,1.8,2471.462,13.29,0.022,307.9
2023-09-21T02:19:03,42.805,6.029,-0.022,0.021,-0.027,101.0,102.0,101.0,13.4,1505.2,347.1,-0.8,1.8,2471.461,13.29,0.03,313.7
2023-09-21T02:22:03,42.805,6.029,-0.02,-0.01,-0.037,101.0,102.0,100.0,13.3,1505.2,333.9,-0.8,1.8,2471.463,13.29,0.022,243.4
2023-09-21T02:25:03,42.805,6.029,-0.004,0.028,0.004,101.0,101.0,101.0,13.4,1505.2,347.4,-0.7,1.8,2471.477,13.29,0.028,351.9
2023-09-21T02:28:03,42.805,6.029,-0.004,0.022,-0.017,102.0,104.0,100.0,13.4,1505.2,346.7,-0.7,1.8,2471.443,13.29,0.022,349.7
2023-09-21T02:31:03,42.805,6.029,-0.004,-0.002,-0.026,100.0,102.0,101.0,13.3,1505.2,327.6,-0.8,1.8,2471.459,13.29,0.004,243.4
2023-09-21T02:34:03,42.805,6.029,-0.005,0.024,-0.008,101.0,101.0,100.0,13.4,1505.2,348.6,-0.8,1.8,2471.462,13.29,0.024,348.2
2023-09-21T02:37:03,42.805,6.029,-0.01,0.022,-0.016,101.0,101.0,101.0,13.3,1505.2,345.2,-0.8,1.8,2471.472,13.29,0.024,335.6
2023-09-21T02:40:03,42.805,6.029,0.004,0.001,-0.003,104.0,102.0,100.0,13.3,1505.2,336.8,-0.8,1.9,2471.418,13.29,0.004,76.0
2023-09-21T02:43:03,42.805,6.029,0.01,0.011,-0.035,101.0,103.0,101.0,13.3,1505.2,334.8,-0.8,1.8,2471.443,13.29,0.014,42.3
2023-09-21T02:46:03,42.805,6.029,-0.021,0.012,-0.028,101.0,101.0,100.0,13.3,1505.2,340.1,-0.7,1.8,2471.411,13.29,0.024,299.7
2023-09-21T02:49:03,42.805,6.029,-0.022,0.006,-0.046,101.0,101.0,101.0,13.3,1505.2,351.8,-0.8,1.8,2471.453,13.29,0.022,285.3
2023-09-21T02:52:03,42.805,6.029,-0.032,0.011,-0.019,101.0,101.0,100.0,13.4,1505.2,347.1,-0.8,1.8,2471.413,13.29,0.033,289.0
2023-09-21T02:55:03,42.805,6.029,-0.018,0.027,-0.017,101.0,102.0,100.0,13.3,1505.2,345.9,-0.7,1.8,2471.435,13.29,0.032,326.3
2023-09-21T02:58:03,42.805,6.029,-0.02,0.014,-0.04,102.0,100.0,100.0,13.4,1505.2,340.9,-0.8,1.8,2471.432,13.29,0.024,305.0
2023-09-21T03:04:03,42.805,6.029,-0.01,0.028,-0.019,99.0,101.0,101.0,13.4,1505.2,328.0,-0.8,1.8,2471.47,13.29,0.029,340.4
2023-09-21T03:07:03,42.805,6.029,0.027,-0.006,-0.026,102.0,101.0,100.0,13.4,1505.2,329.8,-0.8,1.8,2471.432,13.29,0.027,102.5
2023-09-21T03:10:03,42.805,6.029,-0.033,0.043,-0.011,102.0,100.0,100.0,13.3,1505.2,339.4,-0.8,1.8,2471.477,13.29,0.054,322.5
2023-09-21T03:13:03,42.805,6.029,-0.005,0.042,0.002,100.0,101.0,100.0,13.4,1505.2,333.4,-0.8,1.8,2471.478,13.29,0.042,353.2
2023-09-21T03:16:03,42.805,6.029,0.017,-0.007,-0.048,101.0,101.0,100.0,13.3,1505.2,339.8,-0.8,1.8,2471.459,13.29,0.018,112.4
2023-09-21T03:19:03,42.805,6.029,0.024,0.008,-0.012,101.0,101.0,100.0,13.3,1505.2,342.5,-0.8,1.8,2471.483,13.29,0.025,71.6
2023-09-21T03:22:03,42.805,6.029,0.038,-0.011,0.003,102.0,101.0,101.0,13.4,1505.2,350.1,-0.7,1.8,2471.445,13.29,0.039,106.1
2023-09-21T03:25:03,42.805,6.029,0.0,0.012,-0.002,101.0,101.0,100.0,13.4,1505.2,349.5,-0.7,1.8,2471.383,13.29,0.012,0.0
2023-09-21T03:28:03,42.805,6.029,-0.015,0.014,-0.033,100.0,101.0,100.0,13.4,1505.2,352.1,-0.8,1.8,2471.436,13.29,0.02,313.0
2023-09-21T03:31:03,42.805,6.029,0.022,-0.016,-0.018,103.0,100.0,100.0,13.4,1505.2,339.0,-0.8,1.8,2471.429,13.29,0.027,126.0
2023-09-21T03:34:03,42.805,6.029,-0.026,0.011,0.0,98.0,102.0,101.0,13.4,1505.2,326.0,-0.8,1.8,2471.474,13.29,0.028,292.9
2023-09-21T03:37:03,42.805,6.029,-0.001,0.006,-0.019,101.0,102.0,100.0,13.4,1505.2,336.8,-0.8,1.8,2471.442,13.29,0.006,350.5
2023-09-21T03:40:03,42.805,6.029,-0.012,0.006,-0.014,101.0,101.0,100.0,13.4,1505.2,340.0,-0.8,1.8,2471.41,13.29,0.013,296.6
2023-09-21T03:43:03,42.805,6.029,-0.016,0.016,0.012,102.0,103.0,101.0,13.3,1505.2,341.2,-0.8,1.8,2471.457,13.29,0.022,315.0
2023-09-21T03:46:03,42.805,6.029,0.002,0.003,-0.041,100.0,102.0,100.0,13.4,1505.2,338.7,-0.8,1.8,2471.412,13.29,0.003,33.7
2023-09-21T03:49:03,42.805,6.029,0.016,0.002,-0.032,101.0,100.0,100.0,13.3,1505.2,340.9,-0.8,1.8,2471.439,13.29,0.016,82.9
2023-09-21T03:52:03,42.805,6.029,-0.034,-0.004,-0.038,101.0,100.0,100.0,13.3,1505.2,337.1,-0.7,1.8,2471.425,13.29,0.034,263.3
2023-09-21T03:55:03,42.805,6.029,-0.025,0.008,-0.024,102.0,101.0,100.0,13.4,1505.2,334.8,-0.8,1.8,2471.431,13.29,0.026,287.7
2023-09-21T03:58:03,42.805,6.029,0.025,0.008,0.029,101.0,101.0,101.0,13.3,1505.2,349.3,-0.8,1.8,2471.45,13.29,0.026,72.3
2023-09-21T04:04:03,42.805,6.029,0.005,-0.005,-0.031,102.0,101.0,100.0,13.4,1505.2,354.9,-0.8,1.8,2471.502,13.29,0.007,135.0
2023-09-21T04:07:03,42.805,6.029,-0.001,0.021,-0.014,102.0,102.0,100.0,13.3,1505.2,330.3,-0.8,1.8,2471.451,13.29,0.021,357.3
2023-09-21T04:10:03,42.805,6.029,0.005,0.027,0.003,101.0,101.0,100.0,13.4,1505.2,345.7,-0.7,1.8,2471.454,13.29,0.027,10.5
2023-09-21T04:13:03,42.805,6.029,-0.018,0.036,0.0,100.0,103.0,101.0,13.4,1505.2,335.9,-0.8,1.8,2471.436,13.29,0.04,333.4
2023-09-21T04:16:03,42.805,6.029,-0.03,0.01,-0.03,100.0,101.0,100.0,13.3,1505.2,338.5,-0.8,1.8,2471.435,13.29,0.031,288.4
2023-09-21T04:19:03,42.805,6.029,0.008,0.027,0.017,100.0,102.0,101.0,13.4,1505.2,348.4,-0.8,1.8,2471.446,13.29,0.028,16.5
2023-09-21T04:22:03,42.805,6.029,0.004,0.019,-0.028,102.0,100.0,101.0,13.4,1505.2,352.1,-0.7,1.8,2471.438,13.29,0.019,11.9
2023-09-21T04:25:03,42.805,6.029,-0.002,0.004,-0.027,101.0,104.0,101.0,13.4,1505.2,350.5,-0.8,1.8,2471.405,13.29,0.004,333.4
2023-09-21T04:28:03,42.805,6.029,-0.002,0.009,-0.015,101.0,101.0,101.0,13.4,1505.2,353.4,-0.8,1.8,2471.441,13.29,0.009,347.5
2023-09-21T04:31:03,42.805,6.029,-0.007,-0.009,-0.044,101.0,100.0,101.0,13.4,1505.2,331.8,-0.8,1.8,2471.428,13.29,0.011,217.9
2023-09-21T04:34:03,42.805,6.029,-0.004,-0.002,-0.02,103.0,101.0,100.0,13.4,1505.2,337.9,-0.8,1.8,2471.432,13.29,0.004,243.4
2023-09-21T04:37:03,42.805,6.029,-0.018,0.011,-0.05,102.0,102.0,101.0,13.3,1505.2,345.7,-0.7,1.8,2471.423,13.29,0.021,301.4
2023-09-21T04:40:03,42.805,6.029,0.009,-0.003,-0.016,101.0,102.0,106.0,13.4,1505.2,335.1,-0.8,1.8,2471.419,13.29,0.009,108.4
2023-09-21T04:43:03,42.805,6.029,-0.012,0.024,-0.029,102.0,102.0,101.0,13.3,1505.2,333.0,-0.8,1.8,2471.431,13.29,0.026,333.4
2023-09-21T04:46:03,42.805,6.029,-0.013,0.031,0.0,101.0,102.0,100.0,13.3,1505.2,356.8,-0.8,1.8,2471.398,13.29,0.033,337.3
2023-09-21T04:49:03,42.805,6.029,-0.013,0.005,-0.042,102.0,100.0,101.0,13.4,1505.2,353.4,-0.7,1.8,2471.41,13.29,0.013,291.0
2023-09-21T04:52:03,42.805,6.029,-0.009,0.012,-0.032,102.0,101.0,102.0,13.4,1505.2,354.4,-0.8,1.8,2471.424,13.29,0.015,323.1
2023-09-21T04:55:03,42.805,6.029,0.0,0.012,0.0,101.0,102.0,101.0,13.4,1505.2,326.7,-0.8,1.8,2471.418,13.29,0.012,0.0
2023-09-21T04:58:03,42.805,6.029,0.004,0.004,-0.068,102.0,101.0,100.0,13.4,1505.2,336.5,-0.8,1.8,2471.453,13.29,0.005,45.0
2023-09-21T05:04:03,42.805,6.029,0.006,-0.002,-0.017,101.0,101.0,101.0,13.4,1505.2,346.2,-0.8,1.8,2471.477,13.29,0.006,108.4
2023-09-21T05:07:03,42.805,6.029,-0.015,-0.008,-0.022,100.0,101.0,101.0,13.3,1505.2,343.1,-0.8,1.8,2471.438,13.29,0.017,241.9
2023-09-21T05:10:03,42.805,6.029,-0.003,-0.004,-0.034,102.0,102.0,100.0,13.4,1505.2,328.2,-0.8,1.8,2471.491,13.29,0.005,216.9
2023-09-21T05:13:03,42.805,6.029,0.004,-0.004,-0.03,102.0,101.0,101.0,13.4,1505.2,332.4,-0.8,1.8,2471.478,13.29,0.005,135.0
2023-09-21T05:16:03,42.805,6.029,0.011,0.012,-0.017,101.0,101.0,101.0,13.3,1505.2,343.1,-0.8,1.8,2471.457,13.29,0.016,42.5
2023-09-21T05:19:03,42.805,6.029,0.003,-0.003,-0.005,101.0,103.0,101.0,13.3,1505.2,345.0,-0.8,1.8,2471.452,13.29,0.004,135.0
2023-09-21T05:22:03,42.805,6.029,-0.012,-0.019,-0.038,101.0,101.0,101.0,13.4,1505.2,340.5,-0.8,1.8,2471.408,13.29,0.022,212.3
2023-09-21T05:25:03,42.805,6.029,0.02,-0.027,-0.047,102.0,101.0,100.0,13.4,1505.2,347.4,-0.8,1.8,2471.432,13.29,0.033,143.5
2023-09-21T05:28:03,42.805,6.029,0.001,-0.001,-0.004,101.0,101.0,101.0,13.4,1505.2,336.0,-0.7,1.8,2471.456,13.29,0.001,135.0
2023-09-21T05:31:03,42.805,6.029,0.004,0.025,0.009,101.0,101.0,101.0,13.3,1505.2,346.2,-0.8,1.8,2471.449,13.29,0.025,9.1
2023-09-21T05:34:03,42.805,6.029,-0.014,-0.006,-0.019,101.0,102.0,100.0,13.4,1505.2,340.0,-0.7,1.8,2471.428,13.29,0.015,246.8
2023-09-21T05:37:03,42.805,6.029,0.006,-0.013,-0.048,101.0,101.0,100.0,13.4,1505.2,334.4,-0.8,1.8,2471.433,13.29,0.014,155.2
2023-09-21T05:40:03,42.805,6.029,-0.012,-0.005,-0.035,101.0,102.0,101.0,13.3,1505.2,346.5,-0.8,1.8,2471.398,13.29,0.013,247.4
2023-09-21T05:43:03,42.805,6.029,0.003,0.0,-0.006,101.0,101.0,100.0,13.3,1505.2,336.0,-0.8,1.8,2471.414,13.29,0.003,90.0
2023-09-21T05:46:03,42.805,6.029,-0.009,0.012,-0.005,102.0,102.0,101.0,13.3,1505.2,339.1,-0.8,1.8,2471.397,13.29,0.015,323.1
2023-09-21T05:49:03,42.805,6.029,-0.004,0.012,-0.03,101.0,101.0,100.0,13.3,1505.2,345.9,-0.8,1.8,2471.426,13.29,0.012,341.6
2023-09-21T05:52:03,42.805,6.029,0.0,0.0,-0.032,101.0,101.0,100.0,13.3,1505.2,338.5,-0.8,1.8,2471.438,13.29,0.0,0.0
2023-09-21T05:55:03,42.805,6.029,-0.012,0.024,0.05,101.0,101.0,101.0,13.4,1505.2,330.6,-0.7,1.8,2471.426,13.29,0.026,333.4
2023-09-21T05:58:03,42.805,6.029,0.019,-0.008,-0.025,102.0,101.0,101.0,13.3,1505.2,352.1,-0.7,1.8,2471.425,13.29,0.02,112.8
2023-09-21T06:04:03,42.805,6.029,-0.01,0.036,0.001,101.0,101.0,101.0,13.4,1505.2,329.1,-0.8,1.8,2471.442,13.29,0.037,344.5
2023-09-21T06:07:03,42.805,6.029,0.002,0.016,-0.015,102.0,101.0,101.0,13.3,1505.2,347.8,-0.7,1.8,2471.455,13.29,0.016,7.1
2023-09-21T06:10:03,42.805,6.029,0.008,0.009,0.028,101.0,101.0,101.0,13.4,1505.2,333.0,-0.8,1.8,2471.459,13.29,0.012,41.6
2023-09-21T06:13:03,42.805,6.029,-0.007,-0.003,-0.048,102.0,101.0,100.0,13.3,1505.2,348.8,-0.8,1.8,2471.4,13.29,0.007,246.8
2023-09-21T06:16:03,42.805,6.029,-0.004,-0.009,-0.051,100.0,102.0,102.0,13.3,1505.2,336.1,-0.7,1.8,2471.431,13.29,0.009,204.0
2023-09-21T06:19:03,42.805,6.029,-0.009,0.012,-0.006,102.0,101.0,100.0,13.4,1505.2,330.2,-0.7,1.8,2471.443,13.29,0.015,323.1
2023-09-21T06:22:03,42.805,6.029,0.011,-0.014,-0.016,100.0,103.0,101.0,13.3,1505.2,326.5,-0.8,1.8,2471.454,13.29,0.017,141.8
2023-09-21T06:25:03,42.805,6.029,-0.011,-0.001,-0.017,101.0,101.0,101.0,13.4,1505.2,353.6,-0.8,1.8,2471.451,13.29,0.011,264.8
2023-09-21T06:28:03,42.805,6.029,0.0,-0.02,-0.026,101.0,101.0,101.0,13.4,1505.2,332.0,-0.8,1.8,2471.43,13.29,0.02,180.0
2023-09-21T06:31:03,42.805,6.029,0.009,-0.006,-0.005,101.0,102.0,101.0,13.3,1505.2,331.1,-0.7,1.8,2471.389,13.29,0.01,123.7
2023-09-21T06:34:03,42.805,6.029,0.003,0.0,-0.023,101.0,102.0,100.0,13.4,1505.2,342.1,-0.8,1.8,2471.44,13.29,0.003,90.0
2023-09-21T06:37:03,42.805,6.029,0.006,-0.004,-0.039,102.0,100.0,100.0,13.4,1505.2,345.4,-0.8,1.8,2471.428,13.29,0.007,123.7
2023-09-21T06:40:03,42.805,6.029,0.018,-0.002,-0.017,101.0,102.0,99.0,13.4,1505.2,335.9,-0.7,1.8,2471.423,13.29,0.018,96.3
2023-09-21T06:43:03,42.805,6.029,-0.03,-0.013,-0.026,102.0,101.0,101.0,13.3,1505.2,352.2,-0.8,1.8,2471.406,13.29,0.032,246.6
2023-09-21T06:46:03,42.805,6.029,0.009,-0.007,0.004,101.0,102.0,101.0,13.4,1505.2,340.8,-0.8,1.8,2471.44,13.29,0.011,127.9
2023-09-21T06:49:03,42.805,6.029,0.005,-0.006,0.005,101.0,101.0,101.0,13.4,1505.2,337.6,-0.8,1.8,2471.437,13.29,0.007,140.2
2023-09-21T06:52:03,42.805,6.029,-0.008,-0.014,-0.049,100.0,103.0,99.0,13.4,1505.2,349.3,-0.7,1.8,2471.384,13.29,0.016,209.7
2023-09-21T06:55:03,42.805,6.029,0.011,-0.007,-0.036,101.0,101.0,100.0,13.4,1505.2,333.4,-0.8,1.8,2471.428,13.29,0.013,122.5
2023-09-21T06:58:03,42.805,6.029,0.029,-0.012,-0.03,101.0,101.0,100.0,13.4,1505.2,341.2,-0.8,1.8,2471.438,13.29,0.031,112.5
2023-09-21T07:04:03,42.805,6.029,-0.02,0.0,-0.04,101.0,101.0,101.0,13.4,1505.2,340.8,-0.8,1.8,2471.477,13.28,0.02,270.0
2023-09-21T07:07:03,42.805,6.029,0.013,0.016,0.003,101.0,101.0,100.0,13.4,1505.2,352.0,-0.8,1.8,2471.454,13.29,0.02,39.1
2023-09-21T07:10:03,42.805,6.029,-0.024,-0.007,-0.038,101.0,101.0,101.0,13.4,1505.2,333.4,-0.8,1.8,2471.505,13.29,0.025,253.7
2023-09-21T07:13:03,42.805,6.029,-0.013,0.009,-0.047,102.0,100.0,101.0,13.4,1505.2,355.0,-0.8,1.8,2471.451,13.29,0.015,304.7
2023-09-21T07:16:03,42.805,6.029,-0.012,-0.001,-0.047,102.0,101.0,100.0,13.4,1505.2,333.8,-0.7,1.9,2471.465,13.29,0.012,265.2
2023-09-21T07:19:03,42.805,6.029,-0.009,-0.018,-0.026,102.0,101.0,101.0,13.3,1505.2,338.5,-0.8,1.8,2471.484,13.29,0.02,206.6
2023-09-21T07:22:03,42.805,6.029,-0.008,-0.001,-0.013,101.0,101.0,100.0,13.4,1505.2,350.9,-0.8,1.8,2471.429,13.29,0.008,262.9
2023-09-21T07:25:03,42.805,6.029,0.015,-0.006,-0.041,101.0,100.0,100.0,13.3,1505.2,332.5,-0.8,1.8,2471.451,13.29,0.016,111.8
2023-09-21T07:28:03,42.805,6.029,-0.013,-0.035,-0.037,102.0,99.0,101.0,13.3,1505.2,354.6,-0.8,1.8,2471.444,13.29,0.037,200.4
2023-09-21T07:31:03,42.805,6.029,-0.01,-0.01,-0.039,103.0,100.0,102.0,13.4,1505.2,338.5,-0.8,1.8,2471.422,13.29,0.014,225.0
2023-09-21T07:34:03,42.805,6.029,-0.001,0.011,-0.021,101.0,101.0,101.0,13.4,1505.2,346.7,-0.8,1.8,2471.445,13.29,0.011,354.8
2023-09-21T07:37:03,42.805,6.029,-0.002,-0.018,-0.056,101.0,101.0,101.0,13.3,1505.2,343.4,-0.8,1.8,2471.463,13.29,0.018,186.3
2023-09-21T07:40:03,42.805,6.029,0.003,-0.027,-0.031,100.0,102.0,101.0,13.4,1505.2,355.6,-0.7,1.8,2471.5,13.29,0.027,173.7
2023-09-21T07:43:03,42.805,6.029,0.0,-0.003,-0.054,101.0,101.0,100.0,13.4,1505.2,332.0,-0.8,1.8,2471.479,13.29,0.003,180.0
2023-09-21T07:46:03,42.805,6.029,-0.012,0.013,-0.052,102.0,100.0,101.0,13.4,1505.2,345.4,-0.8,1.8,2471.433,13.29,0.017,317.3
2023-09-21T07:49:03,42.805,6.029,-0.014,0.019,0.023,101.0,101.0,100.0,13.3,1505.2,339.4,-0.8,1.8,2471.436,13.29,0.023,323.6
2023-09-21T07:52:03,42.805,6.029,0.008,0.001,-0.017,102.0,101.0,100.0,13.4,1505.2,356.8,-0.8,1.8,2471.458,13.29,0.008,82.9
2023-09-21T07:55:03,42.805,6.029,-0.015,-0.006,-0.056,101.0,100.0,100.0,13.4,1505.2,339.7,-0.8,1.8,2471.436,13.29,0.016,248.2
2023-09-21T07:58:03,42.805,6.029,0.001,-0.016,-0.04,101.0,101.0,100.0,13.4,1505.2,352.0,-0.8,1.8,2471.501,13.29,0.016,176.4
2023-09-21T08:04:03,42.805,6.029,-0.045,-0.004,-0.077,100.0,100.0,100.0,13.3,1505.2,353.2,-0.8,1.8,2471.517,13.29,0.045,264.9
2023-09-21T08:07:03,42.805,6.029,-0.003,-0.001,-0.008,101.0,101.0,100.0,13.4,1505.2,344.8,-0.8,1.8,2471.501,13.29,0.003,251.6
2023-09-21T08:10:03,42.805,6.029,-0.016,0.009,-0.013,101.0,101.0,101.0,13.3,1505.2,327.5,-0.8,1.8,2471.524,13.29,0.018,299.4
2023-09-21T08:13:03,42.805,6.029,-0.007,-0.003,-0.035,102.0,100.0,100.0,13.4,1505.2,335.9,-0.8,1.8,2471.486,13.29,0.007,246.8
2023-09-21T08:16:03,42.805,6.029,0.013,-0.024,-0.038,101.0,100.0,100.0,13.4,1505.2,338.8,-0.8,1.8,2471.491,13.29,0.027,151.6
2023-09-21T08:19:03,42.805,6.029,0.0,-0.003,-0.012,101.0,100.0,101.0,13.3,1505.2,352.0,-0.8,1.8,2471.475,13.29,0.003,180.0
2023-09-21T08:22:03,42.805,6.029,-0.018,0.011,-0.002,101.0,101.0,100.0,13.4,1505.2,328.3,-0.8,1.8,2471.544,13.29,0.021,301.4
2023-09-21T08:25:03,42.805,6.029,0.002,-0.005,-0.032,101.0,101.0,101.0,13.4,1505.2,332.5,-0.7,1.8,2471.517,13.29,0.005,158.2
2023-09-21T08:28:03,42.805,6.029,-0.015,-0.007,-0.031,101.0,102.0,100.0,13.3,1505.2,335.8,-0.8,1.8,2471.513,13.29,0.016,245.0
2023-09-21T08:31:03,42.805,6.029,-0.006,0.006,-0.013,101.0,101.0,100.0,13.3,1505.2,341.8,-0.8,1.8,2471.525,13.29,0.008,315.0
2023-09-21T08:34:03,42.805,6.029,0.002,-0.005,-0.023,101.0,101.0,100.0,13.4,1505.2,345.9,-0.7,1.8,2471.465,13.29,0.005,158.2
2023-09-21T08:37:03,42.805,6.029,-0.004,-0.011,-0.057,101.0,101.0,100.0,13.3,1505.2,331.0,-0.8,1.8,2471.527,13.29,0.011,200.0
2023-09-21T08:40:03,42.805,6.029,-0.011,0.004,-0.035,101.0,103.0,99.0,13.3,1505.2,340.6,-0.8,1.8,2471.469,13.29,0.011,290.0
2023-09-21T08:43:03,42.805,6.029,0.0,0.019,-0.026,101.0,100.0,100.0,13.3,1505.2,345.7,-0.7,1.9,2471.448,13.29,0.019,0.0
2023-09-21T08:46:03,42.805,6.029,-0.017,0.006,-0.012,101.0,100.0,101.0,13.4,1505.2,333.4,-0.8,1.9,2471.522,13.29,0.018,289.4
2023-09-21T08:49:03,42.805,6.029,0.004,-0.001,-0.025,101.0,100.0,100.0,13.3,1505.2,343.3,-0.8,1.8,2471.535,13.29,0.004,104.0
2023-09-21T08:52:03,42.805,6.029,-0.002,-0.015,-0.055,101.0,101.0,101.0,13.4,1505.2,348.2,-0.7,1.8,2471.522,13.29,0.015,187.6
2023-09-21T08:55:03,42.805,6.029,-0.01,0.008,-0.024,101.0,101.0,100.0,13.4,1505.2,345.3,-0.8,1.8,2471.516,13.29,0.012,308.7
2023-09-21T08:58:03,42.805,6.029,-0.007,0.0,-0.023,101.0,101.0,101.0,13.4,1505.2,347.8,-0.8,1.8,2471.504,13.29,0.007,270.0
2023-09-21T09:04:03,42.805,6.029,-0.01,-0.05,-0.092,102.0,101.0,100.0,13.4,1505.2,336.3,-0.8,1.8,2471.571,13.29,0.05,191.3
2023-09-21T09:07:03,42.805,6.029,-0.007,-0.001,-0.029,103.0,102.0,100.0,13.3,1505.2,331.6,-0.8,1.8,2471.564,13.29,0.007,261.9
2023-09-21T09:10:03,42.805,6.029,-0.012,0.001,-0.039,101.0,101.0,102.0,13.4,1505.2,354.5,-0.8,1.8,2471.59,13.29,0.012,274.8
2023-09-21T09:13:03,42.805,6.029,-0.009,-0.034,-0.056,101.0,102.0,100.0,13.3,1505.2,344.0,-0.8,1.8,2471.504,13.29,0.035,194.8
2023-09-21T09:16:03,42.805,6.029,-0.009,0.0,-0.015,102.0,102.0,101.0,13.3,1505.2,337.7,-0.8,1.8,2471.554,13.29,0.009,270.0
2023-09-21T09:19:03,42.805,6.029,-0.009,0.007,-0.036,102.0,102.0,101.0,13.4,1505.2,342.1,-0.8,1.8,2471.545,13.29,0.011,307.9
2023-09-21T09:22:03,42.805,6.029,-0.035,-0.001,-0.045,102.0,102.0,100.0,13.4,1505.2,331.6,-0.7,1.8,2471.534,13.29,0.035,268.4
2023-09-21T09:25:03,42.805,6.029,0.002,0.006,-0.005,102.0,101.0,101.0,13.4,1505.2,345.9,-0.8,1.8,2471.541,13.29,0.006,18.4
2023-09-21T09:28:03,42.805,6.029,0.0,0.011,-0.01,101.0,101.0,101.0,13.4,1505.2,347.8,-0.8,1.8,2471.573,13.29,0.011,0.0
2023-09-21T09:31:03,42.805,6.029,0.016,-0.008,-0.022,101.0,102.0,101.0,13.3,1505.2,330.7,-0.8,1.8,2471.576,13.29,0.017,116.6
2023-09-21T09:34:03,42.805,6.029,-0.033,-0.021,-0.071,102.0,101.0,102.0,13.4,1505.2,337.1,-0.8,1.8,2471.517,13.29,0.039,237.5
2023-09-21T09:37:03,42.805,6.029,-0.027,0.0,-0.066,102.0,101.0,101.0,13.4,1505.2,334.8,-0.8,1.8,2471.549,13.29,0.026,270.0
2023-09-21T09:40:03,42.805,6.029,0.003,0.021,-0.012,102.0,101.0,101.0,13.3,1505.2,343.1,-0.8,1.8,2471.545,13.29,0.021,8.1
2023-09-21T09:43:03,42.805,6.029,-0.011,-0.015,-0.021,101.0,102.0,101.0,13.4,1505.2,356.9,-0.8,1.8,2471.55,13.29,0.018,216.3
2023-09-21T09:46:03,42.805,6.029,0.005,-0.02,-0.005,102.0,101.0,101.0,13.4,1505.2,346.8,-0.8,1.8,2471.562,13.29,0.02,166.0
2023-09-21T09:49:03,42.805,6.029,-0.006,0.002,-0.032,101.0,102.0,101.0,13.4,1505.2,353.7,-0.7,1.8,2471.54,13.29,0.006,288.4
2023-09-21T09:52:03,42.805,6.029,-0.023,0.005,-0.029,101.0,102.0,101.0,13.4,1505.2,354.7,-0.7,1.8,2471.562,13.29,0.023,282.3
2023-09-21T09:55:03,42.805,6.029,0.0,0.003,-0.026,102.0,102.0,101.0,13.4,1505.2,340.0,-0.8,1.8,2471.546,13.29,0.003,0.0